Home   Weather   Fairfield   Past weeks
Flag for USA

Past Weather in Fairfield, Virginia, USA — Yesterday and Last 2 Weeks

Now
38 °F

Sunny.


Feels Like: 35 °F
Forecast: 47 / 25 °F
Wind: 3 mph from South

Location: Reagan National Airport

Current Time: Dec 8, 2019 at 10:46:15 am

Latest Report: Dec 8, 2019 at 9:52 am


Visibility: 10 mi

Pressure: 30.53 "Hg

Humidity: 70%

Dew Point: 29 °F

Location of FairfieldLocation

Past Weather in Fairfield — Graph

°F

Fairfield Temperature Yesterday

Maximum temperature yesterday: 46 °F (at 12:52 am)
Minimum temperature yesterday: 34 °F (at 6:52 am)
Average temperature yesterday: 40 °F

High & Low Weather Summary for the Past Weeks

 TemperatureHumidityPressure
High62 °F (Nov 26, 2:52 pm)100% (Dec 2, 10:55 am)30.53 "Hg (Dec 2, 10:55 am)
Low31 °F (Dec 8, 3:52 am)34% (Nov 27, 10:52 pm)29.46 "Hg (Nov 24, 3:52 am)
Average44 °F67%29.90 "Hg
* Reported Nov 23 8:52 am — Dec 8 8:52 am, Fairfield. Weather by CustomWeather, © 2019

Note: Actual official high and low records may vary slightly from our data, if they occured in-between our weather recording intervals... More about our weather records

Fairfield Weather History for the Previous 24 Hours

Scroll right to see more
 ConditionsComfort  
Time TempWeatherWind HumidityBarometerVisibility
8:52 am
Sun, Dec 8
34 °FPartly sunny.No wind79%30.53 "Hg10 mi
7:52 am33 °FPassing clouds.No wind82%30.53 "Hg10 mi
6:52 am32 °FPassing clouds.No wind85%30.53 "Hg10 mi
5:52 am32 °FPassing clouds.No wind79%30.52 "Hg10 mi
4:52 am31 °FPassing clouds.No wind79%30.51 "Hg10 mi
3:52 am31 °FPassing clouds.No wind82%30.52 "Hg10 mi
2:52 am32 °FPassing clouds.5 mph79%30.50 "Hg10 mi
1:52 am33 °FPassing clouds.3 mph75%30.50 "Hg10 mi
12:52 am33 °FPassing clouds.No wind72%30.50 "Hg10 mi
11:52 pm
Sat, Dec 7
35 °FPassing clouds.3 mph67%30.50 "Hg10 mi
10:52 pm37 °FPassing clouds.No wind62%30.50 "Hg10 mi
9:52 pm37 °FPassing clouds.5 mph60%30.49 "Hg10 mi
8:52 pm38 °FPassing clouds.5 mph60%30.48 "Hg10 mi
7:52 pm36 °FPassing clouds.6 mph59%30.47 "Hg10 mi
6:52 pm39 °FPassing clouds.6 mph50%30.46 "Hg10 mi
5:52 pm40 °FPassing clouds.7 mph49%30.45 "Hg10 mi
4:52 pm41 °FClear.7 mph45%30.43 "Hg10 mi
3:52 pm43 °FPassing clouds.7 mph40%30.42 "Hg10 mi
2:52 pm45 °FPassing clouds.7 mph40%30.41 "Hg10 mi
1:52 pm46 °FScattered clouds.N/A40%30.40 "Hg10 mi
12:52 pm45 °FPartly sunny.No wind40%30.40 "Hg10 mi
11:52 am44 °FPartly sunny.8 mph41%30.42 "Hg10 mi
10:52 am43 °FPartly sunny.No wind43%30.43 "Hg10 mi
Weather by CustomWeather, © 2019

See weather overview

Advertising